Rbgn^[z[y[W
メイン
   新天体発見情報
     Comet C/2016 M1 (PANSTARRS)
投稿するにはまず登録を

スレッド表示 | 新しいものから 前のトピック | 次のトピック | 下へ
投稿者 スレッド
佐藤裕久
投稿日時: 2016-7-2 11:18
モデレータ
登録日: 2005-6-12
居住地: 日本
投稿: 2505
オンライン
Comet C/2016 M1 (PANSTARRS)

Richard WainscoatとRob Werykの通報によると、6月22.5日UT、Haleakalaにある1.8-m Pan-STARRS1望
遠鏡によって得た4枚のi-バンド露出から彗星を発見した。
この彗星は近傍の恒星よりソフトに見え、 p.a.およそ150°に向かって非対称に伸びている気配がある。
p.a.およそ310°に向かって約6"伸びた尾の形跡がある(たぶんかすかな尾と連想されるが、ただ全くかろ
うじて見えるだけ)。
小惑星センターのNEOCPとPCCP webpageに公表後、G. Hug (Sandlot天文台, Scranton, カンザス州, 
0.56-m 反射望遠鏡)や佐藤英貴氏(東京都文京区, iTelescope天文台, 0.43-m f/6.8 アストログラフ+
輝度フィルター, Nerpio, スペイン, 遠隔操作)らCCD位置観測者によって彗星状と観測された。

発見位置は次のとおり、

     2016 UT             R.A. (2000) Decl.       Mag.
     June 22.46678   18 11 33.54   +69 34 30.4   19.7
          22.47971   18 11 32.41   +69 34 29.1   19.3
          22.49267   18 11 31.23   +69 34 27.8   19.8
          22.50562   18 11 30.09   +69 34 26.7   19.9

暫定放物線軌道要素、位置推算表は次のとおり、

Orbital elements:
    C/2016 M1 (PANSTARRS)
T 2018 Oct. 26.33304 TT                                 MPCW
q   2.6325827            (2000.0)            P               Q
                   Peri.  204.42086     -0.14318932     +0.03181104
                   Node    81.74781     -0.66070617     +0.74107600
e   1.0            Incl.   91.75071     -0.73686103     -0.67066715
From 41 observations 2016 June 22-24.

Ephemeris:
    C/2016 M1 (PANSTARRS)
Date    TT    R. A. (2000) Decl.     Delta      r     Elong.  Phase   m1
2016 05 25    18 49 26.9 +69 11 48   8.3167  8.2959    85.3     7.0  18.8
...
2016 06 09    18 30 40.0 +69 38 53   8.1940  8.1910    86.3     7.1  18.7
...
2016 06 17    18 19 26.4 +69 39 50   8.1295  8.1349    86.7     7.2  18.7
...
2016 06 23    18 10 47.4 +69 33 42   8.0819  8.0928    87.0     7.2  18.6
2016 06 24    18 09 20.6 +69 32 06   8.0741  8.0858    87.1     7.2  18.6
2016 06 25    18 07 53.9 +69 30 19   8.0662  8.0788    87.1     7.2  18.6
...
2016 07 01    17 59 18.2 +69 16 05   8.0197  8.0366    87.3     7.3  18.6
...
2016 07 09    17 48 16.8 +68 47 38   7.9591  7.9802    87.5     7.3  18.5
...
2016 07 24    17 30 11.3 +67 26 51   7.8509  7.8743    87.6     7.4  18.4

(CBET 4286、MPEC 2016-M18) 
スレッド表示 | 新しいものから 前のトピック | 次のトピック | トップ

投稿するにはまず登録を
 
© 1999 Tsutomu Seki.